Nassau, Bahamas

2:29 AM EDT on September 26, 2017 (GMT -0400)
Nassau

Weather History for 78073 - August, 2013

Change the Weather History Date:

Sunday, August 4, 2013

  Actual Average Record
Temperature  
Mean Temperature 86 °F -  
Max Temperature 91 °F 89 °F - ()
Min Temperature 81 °F 75 °F - ()
Cooling Degree Days 21    
Growing Degree Days 36 (Base 50)    
Moisture  
Dew Point 76 °F    
Average Humidity 75    
Maximum Humidity 84    
Minimum Humidity 59    
Precipitation  
Precipitation 0.00 in 0.28 in - ()
Sea Level Pressure  
Sea Level Pressure 30.09 in    
Wind  
Wind Speed 3 mph ()    
Max Wind Speed 7 mph    
Max Gust Speed -    
Visibility 6.9 miles    
Events Rain    
T = Trace of Precipitation, MM = Missing Value Source: Averaged Metar Reports

Daily Weather History Graph

Daily Weather History Graph

Search for Another Location

Airport or City:

Trip Planner

Search our weather history database for the weather conditions in past years. The results will help you decide how hot, cold, wet, or windy it might be!

Date:

Astronomy

Aug. 04, 2013 Rise Set
Actual Time 6:38 AM EDT 7:52 PM EDT
Civil Twilight 6:14 AM EDT 8:16 PM EDT
Nautical Twilight 5:45 AM EDT 8:45 PM EDT
Astronomical Twilight 5:15 AM EDT 9:15 PM EDT
Moon 4:40 AM EDT (8/4) 6:14 PM EDT (8/4)
Length of Visible Light 14h 02m
Length of Day
13h 13m
Waning Crescent, 5% of the Moon is Illuminated
Aug 4
Waning Crescent
Aug 6
New
Aug 14
First Quarter
Aug 20
Full
Aug 28
Last Quarter

Hourly Weather History & Observations

Time (EDT) Temp. Heat Index Dew Point Humidity Pressure Visibility Wind Dir Wind Speed Gust Speed Precip Events Conditions
12:00 AM 82.4 °F 90.9 °F 77.0 °F 84% 30.15 in 6.2 mi East 3.5 mph - N/A   Mostly Cloudy
1:00 AM 82.4 °F 90.9 °F 77.0 °F 84% 30.12 in 6.2 mi ESE 2.3 mph - N/A   Mostly Cloudy
2:00 AM 83 °F - 76 °F 74% 30.11 in 9 mi ESE 3.5 mph - -   Partly Cloudy
2:00 AM 82.4 °F 90.9 °F 77.0 °F 84% 30.11 in 6.2 mi ESE 3.5 mph - N/A   Mostly Cloudy
3:00 AM 82.4 °F 90.9 °F 77.0 °F 84% 30.09 in - ESE 3.5 mph - N/A   Mostly Cloudy
4:00 AM 82.4 °F 90.9 °F 77.0 °F 84% 30.08 in 6.2 mi Variable 1.2 mph - N/A   Mostly Cloudy
5:00 AM 83 °F - 76 °F 75% 30.08 in 9 mi SE 5.8 mph - -   Partly Cloudy
5:00 AM 82.4 °F 90.9 °F 77.0 °F 84% 30.08 in 6.2 mi SE 5.8 mph - N/A   Mostly Cloudy
6:00 AM 82.4 °F 89.5 °F 75.2 °F 79% 30.09 in 6.2 mi ESE 3.5 mph - N/A   Mostly Cloudy
8:00 AM 84 °F - 78 °F 77% 30.11 in 9 mi 2.3 mph - - Rain Light Rain Showers
8:00 AM 84.2 °F 96.1 °F 78.8 °F 84% 30.11 in 6.2 mi Variable 2.3 mph - N/A   Mostly Cloudy
10:00 AM 84.2 °F 92.3 °F 75.2 °F 74% 30.12 in 6.2 mi SSE 5.8 mph - N/A   Mostly Cloudy
11:00 AM 88 °F - 76 °F 59% 30.12 in 9 mi South 3.5 mph - -   Partly Cloudy
11:00 AM 87.8 °F 97.6 °F 75.2 °F 66% 30.11 in 6.2 mi South 3.5 mph - N/A   Mostly Cloudy
12:00 PM 86.0 °F 95.1 °F 75.2 °F 70% 30.10 in 6.2 mi South 4.6 mph - N/A   Mostly Cloudy
1:00 PM 86.0 °F 95.1 °F 75.2 °F 70% 30.09 in 6.2 mi SSE 6.9 mph - N/A   Mostly Cloudy
2:00 PM 88 °F - 77 °F 63% 30.09 in 8 mi SE 3.5 mph - -   Partly Cloudy
2:00 PM 87.8 °F 99.7 °F 77.0 °F 70% 30.08 in 6.2 mi SE 3.5 mph - N/A   Mostly Cloudy
3:00 PM 86.0 °F 95.1 °F 75.2 °F 70% 30.06 in 6.2 mi SW 3.5 mph - N/A   Mostly Cloudy
4:00 PM 87.8 °F 97.6 °F 75.2 °F 66% 30.04 in 6.2 mi SSE 3.5 mph - N/A   Mostly Cloudy
5:00 PM 87 °F - 75 °F 61% 30.04 in 8 mi SSE 3.5 mph - -   Scattered Clouds
6:00 PM 86.0 °F 95.1 °F 75.2 °F 70% 30.03 in 6.2 mi Calm Calm - N/A   Mostly Cloudy
7:00 PM 86.0 °F 95.1 °F 75.2 °F 70% 30.04 in 6.2 mi North 3.5 mph - N/A   Mostly Cloudy
8:00 PM 85 °F - 77 °F 71% 30.06 in 8 mi North 3.5 mph - -   Mostly Cloudy
8:00 PM 84.2 °F 94.1 °F 77.0 °F 79% 30.06 in 6.2 mi North 3.5 mph - N/A   Mostly Cloudy
9:00 PM 84.2 °F 92.3 °F 75.2 °F 74% 30.07 in 6.2 mi North 3.5 mph - N/A   Mostly Cloudy
10:00 PM 84.2 °F 92.3 °F 75.2 °F 74% 30.08 in 6.2 mi NW 3.5 mph - N/A   Mostly Cloudy
11:00 PM 82 °F - 77 °F 81% 30.08 in 9 mi SSW 3.5 mph - -   Partly Cloudy
11:00 PM 82.4 °F 90.9 °F 77.0 °F 84% 30.08 in 6.2 mi SSW 3.5 mph - N/A   Mostly Cloudy